User: anonymous   Login
Location: Asheville, NC
(35.6000°N, 82.5500°W)
Time: 08:09:35
(UTC-04:00)
Language:

PCSat - Orbit

View from above orbital plane
View from above orbital plane
View from above satellite
View from above satellite

Ground track
Ground track

The orbit data is extracted from the following two-line orbital elements,

1 26931U 01043C   18198.90817203 -.00000040 +00000-0 +16445-4 0  9995
2 26931 067.0509 150.1393 0007981 270.2101 089.8086 14.30510982876878
Epoch (UTC): 17 July 2018 21:47:46
Eccentricity: 0.0007981
inclination: 67.0509°
perigee height: 784 km
apogee height: 796 km
right ascension of ascending node: 150.1393°
argument of perigee: 270.2101°
revolutions per day: 14.30510982
mean anomaly at epoch: 89.8086°
orbit number at epoch: 87687

The dashed part of the orbit path shows where the satellite is in the earth's shadow,  

DLR